#timestamp,LO_Frequency,Hit,StdDev 
1540018815.7,286047000.3,N
1540018835.6,286046999.5,N
1540018855.4,286046995.6,N
1540018875.2,286046993.6,N
1540018895.1,286046995.7,N
1540018896.0,286046995.7,N
1540018915.8,286046992.9,N
1540018935.7,286046990.8,Y
1540018955.5,286046999.5,P
1540018975.3,286046996.8,N
1540018995.2,286046993.4,P
1540019015.0,286046991.8,Y
1540019015.9,286046991.8,P
1540019035.8,286046996.0,N
1540019055.6,286046998.0,N
1540019075.4,286046995.5,N
1540019095.3,286046995.5,N
1540019115.1,286046995.8,N
1540019135.8,286046995.4,N
1540019155.7,286046993.7,Y
1540019175.5,286047002.8,P
1540019195.4,286046999.9,N
1540019215.2,286046998.3,N
1540019235.0,286046998.2,N
1540019235.9,286046998.2,N
1540019255.8,286046999.0,N
1540019275.6,286046997.7,N
1540019295.5,286046999.1,N
1540019315.3,286046999.1,N
1540019335.1,286046998.7,N
1540019355.9,286046999.6,N
1540019375.7,286046999.3,N
1540019395.5,286046998.9,N
1540019415.4,286046997.8,N
1540019435.2,286046995.0,Y
1540019455.1,286046998.0,P
1540019456.0,286046998.0,P
1540019475.8,286046995.6,P
1540019495.6,286046995.9,Y
1540019515.5,286046999.0,P
1540019535.3,286046996.5,P
1540019555.1,286047001.2,N
1540019575.9,286046998.4,N
1540019595.7,286046997.2,N
1540019615.6,286046998.2,N
1540019635.4,286046999.6,N
1540019655.2,286046996.9,N
1540019675.1,286046998.7,N
1540019676.0,286046998.7,N
1540019695.8,286046998.8,N
1540019715.7,286046997.1,N
1540019735.5,286046995.7,Y
1540019755.3,286046996.8,P
1540019775.2,286047002.2,N
1540019795.0,286047001.2,N
1540019795.9,286047001.2,N
1540019815.7,286047001.7,N
1540019835.6,286047002.5,N
1540019855.4,286047002.6,N
1540019875.3,286046999.9,N
1540019895.1,286047000.1,N
1540019896.0,286047000.1,N
1540019915.8,286047002.8,N
1540019935.7,286047000.1,N
1540019955.5,286047001.9,N
1540019975.3,286047002.5,N
1540019995.2,286047002.0,N
1540020015.0,286047002.7,N
1540020015.9,286047002.7,N
1540020035.8,286047002.5,N
1540020055.6,286046998.2,N
1540020075.4,286047000.6,N
1540020095.3,286047000.8,N
1540020115.1,286047002.5,N
1540020135.8,286047002.8,N
1540020155.7,286047003.2,N
1540020175.5,286047001.8,N
1540020195.4,286047002.6,N
1540020215.2,286047002.3,N
1540020235.0,286047003.4,N
1540020235.9,286047003.4,N
1540020255.8,286047004.6,N
1540020275.6,286047004.3,N
1540020295.4,286047002.2,N
1540020315.3,286047000.2,N
1540020335.1,286046999.8,N
1540020355.9,286046999.8,N
1540020375.7,286047002.1,N
1540020395.5,286047000.9,N
1540020415.4,286047009.2,Y
1540020435.2,286047008.2,P
1540020455.0,286047010.9,P
1540020455.9,286047010.9,N
1540020475.8,286047014.4,Y
1540020495.6,286047008.3,P
1540020515.5,286047004.8,P
1540020535.3,286047003.3,N
1540020555.1,286047003.2,N
1540020575.9,286047002.1,N
1540020595.7,286046999.9,N
1540020615.5,286046997.8,N
1540020635.4,286046996.6,N
1540020655.2,286046999.0,N
1540020675.1,286047000.3,N
1540020676.0,286047000.3,N
1540020695.8,286047002.1,N
1540020715.6,286047003.7,N
1540020735.5,286047004.4,N
1540020755.3,286047001.7,N
1540020775.1,286046999.8,N
1540020795.9,286047004.2,N
1540020815.7,286047004.6,N
1540020835.5,286047004.6,N
1540020855.4,286047006.4,N
1540020875.2,286047010.5,Y
1540020895.1,286047008.2,P
1540020896.0,286047008.2,N
1540020915.8,286047009.9,P
1540020935.6,286047011.8,Y
1540020955.5,286047003.1,P
1540020975.3,286047005.8,N
1540020995.2,286047006.8,P
1540021015.9,286047008.2,Y
1540021035.7,286047004.1,P
1540021055.6,286047003.0,P
1540021075.4,286047005.1,P
1540021095.3,286047004.6,Y
1540021115.1,286046996.8,P
1540021116.0,286046996.8,N
1540021135.8,286046999.4,N
1540021155.7,286046998.1,N
1540021175.5,286046997.1,N
1540021195.4,286047000.3,N
1540021215.2,286046998.6,N
1540021235.0,286047000.3,N
1540021235.9,286047000.3,N
1540021255.8,286046999.8,N
1540021275.6,286047000.9,N
1540021295.4,286047000.3,N
1540021315.3,286047000.3,N
1540021335.1,286047002.7,N
1540021355.9,286047004.0,N
1540021375.7,286047003.1,N
1540021395.5,286047004.1,N
1540021415.4,286047003.5,N
1540021435.2,286047005.6,N
1540021455.1,286047002.9,N
1540021456.0,286047002.9,N
1540021475.8,286047005.9,N
1540021495.6,286047003.9,N
1540021515.5,286047004.1,N
1540021535.3,286047004.0,N
1540021555.1,286047001.0,N
1540021575.9,286047000.8,N
1540021595.7,286046998.3,N
1540021615.6,286046998.1,N
1540021635.4,286047001.2,N
1540021655.2,286047002.6,N
1540021675.1,286046999.9,N
1540021676.0,286046999.9,N
1540021695.8,286047002.3,N
1540021715.7,286047001.5,N
1540021735.5,286047001.7,N
1540021755.3,286047002.1,N
1540021775.2,286047004.3,N
1540021795.0,286047003.6,N
1540021795.9,286047003.6,N
1540021815.8,286047003.3,N
1540021835.6,286047004.4,N
1540021855.4,286047001.6,N
1540021875.3,286046999.8,N
1540021895.1,286047004.4,N
1540021915.8,286047003.2,N
1540021935.7,286047000.5,N
1540021955.5,286046998.9,N
1540021975.4,286046999.8,N
1540021995.2,286047000.4,N
1540022015.0,286046995.1,N
1540022015.9,286046995.1,N
1540022035.8,286046995.1,N
1540022055.6,286046997.8,N
1540022075.4,286046995.6,N
1540022095.3,286046995.3,N
1540022115.1,286046999.6,N
1540022135.9,286046999.6,N
1540022155.7,286046996.8,N
1540022175.5,286046995.4,N
1540022195.4,286046995.0,N
1540022215.2,286046992.5,N
1540022235.0,286046990.2,N
1540022236.0,286046990.2,N
1540022255.8,286046992.1,N
1540022275.6,286046992.0,N
1540022295.5,286046988.7,N
1540022315.3,286046987.5,N
1540022335.1,286046988.7,N
1540022355.9,286046987.0,N
1540022375.7,286046988.8,N
1540022395.6,286046992.8,N
